RPC7293 RPLL-RPLC

Flight info

Callsign RPC7293
Flight time 1h 7m
Altitude 8000
Route RDVXOLIVA/13 OLIVA OLIVA3P
Aircraft C172/L-SFG/C

Departure

Time 2026-05-04 12:11
Airport Ninoy Aquino International Airport (RPLL)

Arrival

Time 2026-05-04 13:19
Airport Clark International Airport / Clark Air Base (RPLC)
Time Latitude Longitude Altitude Speed Heading
2026-05-04 12:04 14.51924 121.00603 77 ft 0 kts
2026-05-04 12:09 14.51925 121.00603 77 ft 0 kts
2026-05-04 12:09 14.51930 121.00604 77 ft 2 kts 11°
2026-05-04 12:09 14.51972 121.00613 77 ft 9 kts 10°
2026-05-04 12:09 14.52053 121.00627 77 ft 13 kts 10°
2026-05-04 12:10 14.52096 121.00682 77 ft 11 kts 136°
2026-05-04 12:10 14.51981 121.00800 77 ft 45 kts 135°
2026-05-04 12:10 14.51666 121.01114 119 ft 72 kts 139°
2026-05-04 12:10 14.51276 121.01450 294 ft 73 kts 140°
2026-05-04 12:11 14.50896 121.01791 478 ft 71 kts 142°
2026-05-04 12:11 14.50520 121.02105 656 ft 70 kts 136°
2026-05-04 12:11 14.50144 121.02429 834 ft 70 kts 135°
2026-05-04 12:11 14.49768 121.02737 1000 ft 71 kts 135°
2026-05-04 12:12 14.49369 121.03041 1186 ft 69 kts 134°
2026-05-04 12:12 14.48967 121.03327 1335 ft 73 kts 140°
2026-05-04 12:12 14.48533 121.03572 1507 ft 76 kts 153°
2026-05-04 12:12 14.47967 121.03464 1658 ft 88 kts 206°
2026-05-04 12:13 14.47611 121.02930 1801 ft 95 kts 251°
2026-05-04 12:14 14.50600 121.00916 2874 ft 86 kts 326°
2026-05-04 12:15 14.51051 121.00518 3034 ft 86 kts 322°
2026-05-04 12:15 14.51487 121.00082 3185 ft 86 kts 318°
2026-05-04 12:15 14.51945 120.99678 3318 ft 85 kts 332°
2026-05-04 12:15 14.52478 120.99541 3460 ft 76 kts 10°
2026-05-04 12:16 14.52997 120.99528 3622 ft 76 kts
2026-05-04 12:16 14.53520 120.99340 3767 ft 81 kts 338°
2026-05-04 12:16 14.53978 120.98984 3901 ft 86 kts 318°
2026-05-04 12:16 14.54328 120.98480 4067 ft 84 kts 306°
2026-05-04 12:17 14.54674 120.97977 4172 ft 87 kts 316°
2026-05-04 12:17 14.55110 120.97596 4325 ft 81 kts 336°
2026-05-04 12:17 14.55631 120.97375 4460 ft 78 kts 349°
2026-05-04 12:17 14.56148 120.97186 4587 ft 81 kts 340°
2026-05-04 12:18 14.56644 120.96895 4731 ft 81 kts 334°
2026-05-04 12:18 14.57123 120.96562 4860 ft 82 kts 329°
2026-05-04 12:18 14.57570 120.96202 5001 ft 83 kts 327°
2026-05-04 12:18 14.58053 120.95890 5147 ft 79 kts 339°
2026-05-04 12:19 14.58557 120.95664 5274 ft 78 kts 347°
2026-05-04 12:19 14.59065 120.95456 5416 ft 81 kts 328°
2026-05-04 12:19 14.59513 120.95098 5554 ft 80 kts 324°
2026-05-04 12:19 14.59943 120.94720 5672 ft 81 kts 328°
2026-05-04 12:20 14.60403 120.94408 5810 ft 78 kts 337°
2026-05-04 12:20 14.60913 120.94214 5919 ft 77 kts 348°
2026-05-04 12:20 14.61345 120.94023 6033 ft 79 kts 329°
2026-05-04 12:20 14.61794 120.93675 6168 ft 79 kts 322°
2026-05-04 12:21 14.62191 120.93262 6277 ft 83 kts 316°
2026-05-04 12:21 14.62619 120.92889 6401 ft 80 kts 335°
2026-05-04 12:21 14.63093 120.92613 6532 ft 77 kts 339°
2026-05-04 12:21 14.63621 120.92474 6623 ft 76 kts
2026-05-04 12:22 14.63968 120.92436 6726 ft 75 kts 351°
2026-05-04 12:22 14.64584 120.92010 6838 ft 84 kts 321°
2026-05-04 12:22 14.64959 120.91554 6944 ft 86 kts 316°
2026-05-04 12:22 14.65381 120.91124 7074 ft 81 kts 330°
2026-05-04 12:23 14.65856 120.90803 7171 ft 81 kts 336°
2026-05-04 12:23 14.66359 120.90563 7274 ft 79 kts 350°
2026-05-04 12:23 14.66876 120.90382 7396 ft 78 kts 341°
2026-05-04 12:23 14.67372 120.90113 7494 ft 82 kts 334°
2026-05-04 12:24 14.67838 120.89768 7612 ft 82 kts 330°
2026-05-04 12:24 14.68283 120.89395 7724 ft 83 kts 327°
2026-05-04 12:24 14.68710 120.88983 7839 ft 82 kts 328°
2026-05-04 12:24 14.69180 120.88648 7953 ft 80 kts 339°
2026-05-04 12:25 14.69685 120.88410 7904 ft 86 kts 344°
2026-05-04 12:25 14.70193 120.88157 7995 ft 77 kts 343°
2026-05-04 12:25 14.70730 120.87944 7975 ft 77 kts 353°
2026-05-04 12:25 14.71251 120.87816 7957 ft 82 kts 352°
2026-05-04 12:26 14.71769 120.87628 8029 ft 78 kts 343°
2026-05-04 12:26 14.72286 120.87369 8027 ft 82 kts 338°
2026-05-04 12:26 14.72744 120.87013 8069 ft 86 kts 323°
2026-05-04 12:26 14.73141 120.86529 8087 ft 88 kts 314°
2026-05-04 12:27 14.73538 120.86047 8064 ft 88 kts 327°
2026-05-04 12:27 14.74007 120.85660 8083 ft 82 kts 333°
2026-05-04 12:27 14.74493 120.85322 8035 ft 84 kts 338°
2026-05-04 12:27 14.75002 120.85066 8031 ft 79 kts 349°
2026-05-04 12:28 14.75543 120.84924 7997 ft 78 kts 358°
2026-05-04 12:28 14.76075 120.84856 7978 ft 77 kts
2026-05-04 12:28 14.76615 120.84826 7981 ft 75 kts
2026-05-04 12:28 14.77149 120.84724 7950 ft 81 kts 354°
2026-05-04 12:29 14.77658 120.84457 7979 ft 86 kts 327°
2026-05-04 12:29 14.78010 120.83920 7993 ft 90 kts 306°
2026-05-04 12:29 14.78345 120.83379 7981 ft 90 kts 322°
2026-05-04 12:29 14.78799 120.82980 8033 ft 82 kts 328°
2026-05-04 12:30 14.79248 120.82554 8022 ft 87 kts 324°
2026-05-04 12:30 14.79661 120.82114 8045 ft 87 kts 323°
2026-05-04 12:30 14.80111 120.81702 8065 ft 84 kts 328°
2026-05-04 12:30 14.80545 120.81273 8045 ft 88 kts 324°
2026-05-04 12:31 14.80972 120.80823 8076 ft 86 kts 323°
2026-05-04 12:31 14.81437 120.80408 8064 ft 85 kts 338°
2026-05-04 12:31 14.81972 120.80266 8068 ft 77 kts 12°
2026-05-04 12:31 14.82516 120.80183 8086 ft 83 kts 343°
2026-05-04 12:32 14.83009 120.79852 8051 ft 86 kts 336°
2026-05-04 12:32 14.84033 120.79234 7989 ft 84 kts 344°
2026-05-04 12:32 14.84575 120.79044 7997 ft 80 kts 349°
2026-05-04 12:33 14.85092 120.78783 7967 ft 83 kts 338°
2026-05-04 12:33 14.85593 120.78485 7944 ft 85 kts 339°
2026-05-04 12:33 14.86069 120.78094 7944 ft 87 kts 322°
2026-05-04 12:33 14.86478 120.77629 7936 ft 88 kts 321°
2026-05-04 12:34 14.86948 120.77245 7937 ft 84 kts 335°
2026-05-04 12:34 14.87436 120.76898 7929 ft 85 kts 336°
2026-05-04 12:34 14.87955 120.76633 7961 ft 80 kts 347°
2026-05-04 12:34 14.88472 120.76375 7973 ft 84 kts 338°
2026-05-04 12:35 14.88963 120.76025 8000 ft 85 kts 331°
2026-05-04 12:35 14.89424 120.75632 8023 ft 86 kts 329°
2026-05-04 12:35 14.89898 120.75262 8055 ft 83 kts 335°
2026-05-04 12:35 14.90402 120.74970 8054 ft 82 kts 342°
2026-05-04 12:36 14.90902 120.74653 8062 ft 85 kts 332°
2026-05-04 12:36 14.91391 120.74319 8079 ft 83 kts 336°
2026-05-04 12:36 14.91906 120.74033 8065 ft 83 kts 345°
2026-05-04 12:36 14.92435 120.73828 8087 ft 80 kts 351°
2026-05-04 12:37 14.92973 120.73623 8091 ft 82 kts 344°
2026-05-04 12:37 14.93504 120.73389 8080 ft 82 kts 348°
2026-05-04 12:37 14.94019 120.73108 8071 ft 86 kts 336°
2026-05-04 12:37 14.94524 120.72775 8072 ft 84 kts 340°
2026-05-04 12:38 14.95059 120.72524 8066 ft 83 kts 346°
2026-05-04 12:38 14.95581 120.72258 8072 ft 84 kts 343°
2026-05-04 12:38 14.96122 120.72044 8059 ft 80 kts 355°
2026-05-04 12:38 14.96665 120.71908 8059 ft 80 kts 352°
2026-05-04 12:39 14.97215 120.71743 7989 ft 82 kts 353°
2026-05-04 12:39 14.97575 120.71637 7972 ft 78 kts 353°
2026-05-04 12:39 14.98310 120.71453 8026 ft 68 kts 355°
2026-05-04 12:39 14.98816 120.71455 7927 ft 76 kts 19°
2026-05-04 12:40 14.99272 120.71699 7927 ft 74 kts 23°
2026-05-04 12:40 14.99792 120.71802 7921 ft 78 kts
2026-05-04 12:40 15.00333 120.71770 7957 ft 77 kts
2026-05-04 12:40 15.00859 120.71567 7984 ft 83 kts 340°
2026-05-04 12:41 15.01382 120.71330 7989 ft 81 kts 356°
2026-05-04 12:41 15.01912 120.71242 8059 ft 75 kts 358°
2026-05-04 12:41 15.02465 120.71100 8038 ft 82 kts 352°
2026-05-04 12:41 15.02982 120.70872 8068 ft 83 kts 345°
2026-05-04 12:42 15.03518 120.70660 8102 ft 79 kts 353°
2026-05-04 12:42 15.04056 120.70567 8103 ft 79 kts
2026-05-04 12:42 15.04604 120.70533 8137 ft 75 kts
2026-05-04 12:42 15.05150 120.70488 8100 ft 79 kts
2026-05-04 12:43 15.05685 120.70483 8092 ft 75 kts 10°
2026-05-04 12:43 15.06229 120.70535 8041 ft 78 kts
2026-05-04 12:43 15.06762 120.70500 8034 ft 77 kts
2026-05-04 12:43 15.07306 120.70524 7996 ft 76 kts 12°
2026-05-04 12:44 15.07833 120.70546 7985 ft 77 kts
2026-05-04 12:44 15.08388 120.70458 7959 ft 79 kts
2026-05-04 12:44 15.08927 120.70370 7942 ft 79 kts 359°
2026-05-04 12:44 15.09476 120.70294 7948 ft 77 kts
2026-05-04 12:45 15.10019 120.70229 7942 ft 80 kts
2026-05-04 12:45 15.10561 120.70194 7992 ft 76 kts
2026-05-04 12:45 15.11104 120.70144 8002 ft 80 kts 360°
2026-05-04 12:45 15.11643 120.70084 8077 ft 75 kts
2026-05-04 12:46 15.12183 120.70104 8074 ft 78 kts
2026-05-04 12:46 15.12722 120.70086 8105 ft 77 kts
2026-05-04 12:46 15.13274 120.70008 8052 ft 81 kts
2026-05-04 12:46 15.13822 120.69904 8046 ft 81 kts 354°
2026-05-04 12:47 15.14380 120.69790 8033 ft 78 kts 359°
2026-05-04 12:47 15.14927 120.69679 7986 ft 83 kts 355°
2026-05-04 12:47 15.15476 120.69506 7986 ft 82 kts 347°
2026-05-04 12:47 15.16013 120.69292 7970 ft 82 kts 350°
2026-05-04 12:48 15.16571 120.69144 7945 ft 81 kts 357°
2026-05-04 12:48 15.17115 120.69153 7934 ft 76 kts 18°
2026-05-04 12:48 15.17610 120.69318 7941 ft 73 kts 21°
2026-05-04 12:48 15.18137 120.69389 7927 ft 79 kts
2026-05-04 12:49 15.18680 120.69346 7980 ft 78 kts 356°
2026-05-04 12:49 15.19230 120.69208 7991 ft 80 kts 352°
2026-05-04 12:49 15.19770 120.69057 8000 ft 82 kts 355°
2026-05-04 12:49 15.20326 120.68982 8040 ft 76 kts
2026-05-04 12:50 15.20867 120.68965 8025 ft 78 kts
2026-05-04 12:50 15.21379 120.69081 7901 ft 78 kts 32°
2026-05-04 12:50 15.21827 120.69376 7772 ft 77 kts 24°
2026-05-04 12:50 15.22393 120.69388 7630 ft 82 kts 355°
2026-05-04 12:51 15.22948 120.69215 7473 ft 84 kts 356°
2026-05-04 12:51 15.23502 120.69067 7349 ft 80 kts 354°
2026-05-04 12:51 15.24060 120.68913 7106 ft 83 kts 359°
2026-05-04 12:51 15.24610 120.68903 6908 ft 80 kts 17°
2026-05-04 12:52 15.25152 120.68984 6731 ft 77 kts 14°
2026-05-04 12:52 15.25639 120.69196 6486 ft 79 kts 50°
2026-05-04 12:52 15.25943 120.69638 6336 ft 72 kts 55°
2026-05-04 12:52 15.26354 120.69964 6092 ft 79 kts 21°
2026-05-04 12:53 15.26890 120.70055 5898 ft 79 kts 13°
2026-05-04 12:53 15.27427 120.70101 5712 ft 75 kts 13°
2026-05-04 12:53 15.27942 120.70244 5494 ft 76 kts 24°
2026-05-04 12:53 15.28435 120.70419 5295 ft 77 kts 25°
2026-05-04 12:54 15.28899 120.70656 5100 ft 75 kts 38°
2026-05-04 12:54 15.29345 120.70948 4908 ft 74 kts 28°
2026-05-04 12:54 15.29840 120.71130 4700 ft 77 kts 24°
2026-05-04 12:54 15.30323 120.71330 4532 ft 73 kts 27°
2026-05-04 12:55 15.30793 120.71568 4321 ft 76 kts 32°
2026-05-04 12:55 15.31243 120.71833 4144 ft 73 kts 28°
2026-05-04 12:55 15.31704 120.72069 3942 ft 75 kts 31°
2026-05-04 12:55 15.32171 120.72311 3769 ft 71 kts 27°
2026-05-04 12:56 15.32676 120.72452 3530 ft 80 kts 16°
2026-05-04 12:56 15.33171 120.72566 3588 ft 67 kts 17°
2026-05-04 12:56 15.33667 120.72695 3559 ft 71 kts 15°
2026-05-04 12:56 15.34144 120.72839 3551 ft 74 kts 18°
2026-05-04 12:57 15.34657 120.72877 3561 ft 79 kts 343°
2026-05-04 12:57 15.35040 120.72437 3569 ft 85 kts 298°
2026-05-04 12:57 15.35300 120.71893 3573 ft 85 kts 308°
2026-05-04 12:57 15.35628 120.71395 3616 ft 81 kts 309°
2026-05-04 12:58 15.35926 120.70884 3599 ft 85 kts 303°
2026-05-04 12:58 15.36166 120.70322 3611 ft 85 kts 298°
2026-05-04 12:58 15.36417 120.69774 3616 ft 84 kts 299°
2026-05-04 12:58 15.36646 120.69206 3612 ft 86 kts 295°
2026-05-04 12:59 15.36804 120.68605 3607 ft 85 kts 293°
2026-05-04 12:59 15.36986 120.68016 3566 ft 87 kts 292°
2026-05-04 12:59 15.37172 120.67436 3583 ft 84 kts 296°
2026-05-04 12:59 15.37372 120.66856 3582 ft 85 kts 293°
2026-05-04 13:00 15.37542 120.66267 3576 ft 87 kts 289°
2026-05-04 13:00 15.37686 120.65664 3595 ft 83 kts 295°
2026-05-04 13:00 15.37988 120.65157 3581 ft 80 kts 318°
2026-05-04 13:00 15.38345 120.64714 3573 ft 82 kts 312°
2026-05-04 13:01 15.38680 120.64230 3580 ft 81 kts 311°
2026-05-04 13:01 15.38892 120.63902 3575 ft 81 kts 313°
2026-05-04 13:01 15.39351 120.63610 3543 ft 78 kts 359°
2026-05-04 13:01 15.39691 120.63689 3544 ft 74 kts 30°
2026-05-04 13:02 15.40475 120.63965 3550 ft 73 kts 350°
2026-05-04 13:02 15.40975 120.63773 3514 ft 81 kts 336°
2026-05-04 13:02 15.41443 120.63489 3568 ft 75 kts 330°
2026-05-04 13:02 15.41901 120.63184 3536 ft 78 kts 336°
2026-05-04 13:03 15.42395 120.62952 3541 ft 78 kts 338°
2026-05-04 13:03 15.42896 120.62740 3532 ft 76 kts
2026-05-04 13:03 15.43366 120.62933 3529 ft 73 kts 44°
2026-05-04 13:03 15.43515 120.63442 3505 ft 80 kts 94°
2026-05-04 13:04 15.43191 120.63922 3503 ft 87 kts 141°
2026-05-04 13:04 15.42577 120.64043 3504 ft 91 kts 180°
2026-05-04 13:04 15.41967 120.64073 3487 ft 90 kts 153°
2026-05-04 13:04 15.41596 120.64259 3499 ft 85 kts 144°
2026-05-04 13:05 15.40883 120.64619 3482 ft 88 kts 150°
2026-05-04 13:05 15.40276 120.64698 3469 ft 94 kts 188°
2026-05-04 13:05 15.39685 120.64449 3496 ft 90 kts 202°
2026-05-04 13:05 15.39100 120.64186 3487 ft 90 kts 195°
2026-05-04 13:06 15.38508 120.63963 3485 ft 90 kts 201°
2026-05-04 13:06 15.37976 120.63608 3482 ft 91 kts 216°
2026-05-04 13:06 15.37565 120.63113 3471 ft 92 kts 244°
2026-05-04 13:06 15.37420 120.62478 3476 ft 88 kts 279°
2026-05-04 13:07 15.37684 120.61930 3424 ft 86 kts 329°
2026-05-04 13:07 15.38207 120.61859 3457 ft 72 kts 16°
2026-05-04 13:07 15.38668 120.62026 3458 ft 73 kts 19°
2026-05-04 13:07 15.39167 120.62141 3476 ft 72 kts 14°
2026-05-04 13:08 15.39643 120.62298 3491 ft 69 kts 25°
2026-05-04 13:08 15.40107 120.62493 3481 ft 73 kts 20°
2026-05-04 13:08 15.40596 120.62614 3491 ft 74 kts 13°
2026-05-04 13:08 15.41081 120.62795 3462 ft 77 kts 40°
2026-05-04 13:09 15.41268 120.63298 3466 ft 79 kts 91°
2026-05-04 13:09 15.40975 120.63789 3475 ft 84 kts 130°
2026-05-04 13:09 15.40461 120.64079 3477 ft 88 kts 161°
2026-05-04 13:09 15.39832 120.64057 3484 ft 90 kts 188°
2026-05-04 13:10 15.39227 120.63886 3489 ft 89 kts 189°
2026-05-04 13:10 15.38636 120.63686 3499 ft 90 kts 193°
2026-05-04 13:10 15.38048 120.63470 3509 ft 89 kts 192°
2026-05-04 13:10 15.37459 120.63219 3508 ft 90 kts 202°
2026-05-04 13:11 15.36864 120.62972 3492 ft 93 kts 191°
2026-05-04 13:11 15.36258 120.62820 3541 ft 87 kts 186°
2026-05-04 13:11 15.35633 120.62760 3532 ft 87 kts 173°
2026-05-04 13:11 15.35015 120.62723 3495 ft 93 kts 192°
2026-05-04 13:12 15.34462 120.62402 3473 ft 90 kts 207°
2026-05-04 13:12 15.33884 120.62081 3384 ft 90 kts 203°
2026-05-04 13:12 15.33321 120.61778 3268 ft 93 kts 204°
2026-05-04 13:12 15.32746 120.61505 3166 ft 92 kts 197°
2026-05-04 13:13 15.32129 120.61305 3074 ft 87 kts 193°
2026-05-04 13:13 15.31533 120.61086 2924 ft 92 kts 197°
2026-05-04 13:13 15.30947 120.60889 2817 ft 89 kts 186°
2026-05-04 13:13 15.30328 120.60810 2722 ft 85 kts 194°
2026-05-04 13:14 15.29766 120.60537 2525 ft 93 kts 208°
2026-05-04 13:14 15.29227 120.60239 2404 ft 89 kts 199°
2026-05-04 13:14 15.28642 120.60058 2269 ft 82 kts 185°
2026-05-04 13:14 15.28054 120.59925 2044 ft 91 kts 196°
2026-05-04 13:15 15.27539 120.59598 1974 ft 82 kts 209°
2026-05-04 13:15 15.26989 120.59397 1816 ft 82 kts 184°
2026-05-04 13:15 15.26442 120.59319 1685 ft 82 kts 187°
2026-05-04 13:15 15.25905 120.59110 1570 ft 78 kts 199°
2026-05-04 13:16 15.25380 120.58920 1448 ft 80 kts 194°
2026-05-04 13:16 15.24865 120.58725 1363 ft 80 kts 200°
2026-05-04 13:16 15.24378 120.58490 1304 ft 76 kts 200°
2026-05-04 13:16 15.23859 120.58318 1158 ft 81 kts 194°
2026-05-04 13:17 15.23350 120.58081 1134 ft 73 kts 204°
2026-05-04 13:17 15.22870 120.57852 980 ft 78 kts 198°
2026-05-04 13:17 15.22371 120.57670 870 ft 75 kts 193°
2026-05-04 13:17 15.21866 120.57516 754 ft 77 kts 199°
2026-05-04 13:18 15.21372 120.57400 744 ft 68 kts 172°
2026-05-04 13:18 15.20913 120.57237 573 ft 80 kts 215°
2026-05-04 13:18 15.20461 120.56975 544 ft 70 kts 198°
2026-05-04 13:18 15.20019 120.56804 434 ft 63 kts 198°
2026-05-04 13:19 15.19662 120.56663 409 ft 44 kts 198°
2026-05-04 13:19 15.19490 120.56599 415 ft 34 kts 201°
2026-05-04 13:19 15.19269 120.56512 421 ft 17 kts 203°
2026-05-04 13:19 15.19180 120.56473 423 ft 14 kts 199°
2026-05-04 13:20 15.19124 120.56391 428 ft 15 kts 281°
2026-05-04 13:20 15.19164 120.56279 433 ft 18 kts 289°
2026-05-04 13:20 15.19244 120.56201 434 ft 18 kts 28°
2026-05-04 13:20 15.19373 120.56252 431 ft 20 kts 13°
2026-05-04 13:21 15.19446 120.56175 434 ft 14 kts 292°
2026-05-04 13:21 15.19468 120.56166 434 ft 5 kts 27°
2026-05-04 13:21 15.19523 120.56198 432 ft 2 kts 153°
2026-05-04 13:21 15.19511 120.56191 433 ft 5 kts 214°
2026-05-04 13:22 15.19504 120.56187 433 ft 0 kts 200°